Temp
-3 -3 -3 -3 -3 -3 -3 -3 -3 -3 -2 -2 -2 -2 -2 -2 -2 -2 -2 -2 -2 -2 -2 -2 -2 -1 -1 -0 0 1 2 2 3 3 4 4 4 4 5 5 5 5 5 6 6 6 7 7 8 8 9 9 9 9 10 10 11 11 12 12 12 13 14 15 16 16 16 16 16 17 17 17 17 16 16 16 16 16 16 16 16 16 16 16 16 17
-3 -3 -3 -3 -3 -3 -3 -3 -3 -3 -2 -2 -2 -2 -2 -2 -2 -2 -2 -2 -2 -2 -2 -2 -2 -1 -1 -1 -0 0 1 2 2 3 3 3 4 4 4 4 5 5 5 6 6 6 7 7 7 8 9 9 9 9 10 10 11 11 11 12 12 13 14 15 16 16 16 16 16 16 17 17 17 17 17 17 16 16 16 16 17 17 16 16 16 17
-3 -4 -4 -4 -4 -4 -4 -4 -3 -3 -3 -2 -2 -2 -2 -2 -2 -2 -2 -2 -2 -2 -2 -2 -1 -1 -1 -1 -0 0 1 1 2 2 3 3 3 3 4 4 4 5 5 5 6 6 7 7 7 8 9 9 9 9 9 10 11 11 11 11 12 12 13 15 16 16 16 16 16 16 17 17 17 17 17 17 16 16 16 16 17 17 16 16 16 17
-4 -4 -4 -4 -4 -4 -4 -4 -4 -3 -3 -2 -2 -2 -2 -2 -2 -2 -2 -2 -2 -2 -2 -2 -1 -1 -1 -1 -0 -0 0 1 1 2 3 3 3 3 4 4 4 4 5 5 6 6 7 7 7 8 9 9 9 9 9 10 10 11 11 11 11 12 13 14 15 15 16 16 16 16 17 17 17 17 17 17 17 16 16 16 16 16 16 16 16 17
-4 -4 -4 -4 -4 -4 -4 -4 -4 -3 -3 -2 -2 -2 -2 -2 -2 -2 -2 -2 -2 -2 -2 -2 -1 -1 -1 -1 -1 -0 0 1 1 2 2 3 3 3 3 4 4 5 5 6 6 6 7 7 7 8 9 9 9 9 9 10 10 11 11 11 11 11 12 14 14 15 15 16 16 17 17 17 17 17 17 17 17 16 16 16 16 16 16 16 16 17
-4 -4 -4 -4 -4 -4 -4 -4 -4 -3 -3 -2 -2 -2 -2 -2 -2 -2 -2 -2 -2 -2 -2 -2 -2 -2 -1 -1 -1 -0 0 1 1 2 2 2 3 3 3 4 4 5 5 6 6 7 7 7 8 8 9 9 9 9 9 10 10 11 11 11 11 11 12 13 14 15 15 16 16 17 17 18 18 17 17 17 16 16 16 16 16 16 16 16 16 17
-4 -4 -4 -4 -4 -4 -4 -4 -4 -3 -3 -3 -2 -2 -2 -2 -2 -2 -2 -2 -2 -2 -2 -2 -2 -2 -1 -1 -1 -0 -0 0 1 1 2 2 3 3 4 4 4 5 5 6 6 7 7 7 8 8 9 9 9 9 9 10 10 11 11 11 11 11 12 13 13 14 15 16 16 17 17 18 18 17 17 16 16 16 16 16 16 16 16 16 16 16
-4 -4 -4 -4 -4 -4 -4 -4 -4 -3 -3 -3 -3 -3 -2 -2 -2 -2 -2 -2 -2 -2 -2 -2 -2 -2 -1 -1 -1 -1 -0 -0 0 1 1 2 2 3 4 4 4 5 5 6 6 7 7 7 8 8 9 9 9 9 9 10 10 10 10 11 11 11 11 12 13 14 15 15 16 17 17 18 18 17 17 16 16 16 16 16 16 16 16 16 16 16
-5 -4 -4 -4 -4 -4 -4 -4 -4 -3 -3 -3 -3 -3 -3 -2 -2 -2 -2 -2 -3 -3 -2 -2 -2 -2 -2 -1 -1 -1 -1 -0 0 1 1 2 2 3 3 4 4 5 5 6 6 7 7 7 8 8 9 9 9 9 9 9 10 10 10 11 11 11 11 12 13 14 14 15 16 16 17 18 18 18 17 16 16 16 16 16 16 16 16 16 16 16
-5 -5 -4 -4 -4 -4 -4 -4 -4 -3 -3 -3 -3 -3 -3 -2 -2 -3 -3 -3 -3 -3 -2 -2 -2 -2 -2 -1 -1 -1 -1 -0 -0 1 1 2 2 2 3 4 4 5 5 6 6 7 7 7 8 8 9 9 9 9 9 9 10 10 10 10 11 11 11 12 13 14 14 15 15 16 17 18 18 17 17 17 16 16 16 16 16 16 16 16 16 16
-5 -5 -4 -4 -4 -4 -4 -4 -4 -4 -3 -3 -3 -3 -3 -3 -3 -3 -3 -3 -3 -3 -2 -2 -2 -2 -2 -2 -1 -1 -1 -1 -0 0 1 1 2 3 3 4 4 5 6 6 7 7 7 8 8 8 9 9 9 9 9 9 10 10 10 10 11 11 11 12 13 14 14 15 15 16 16 17 17 17 17 17 16 16 16 16 16 16 16 16 16 16
-5 -5 -4 -4 -4 -4 -4 -4 -4 -4 -3 -3 -3 -3 -3 -3 -3 -3 -3 -3 -3 -3 -2 -2 -2 -2 -2 -2 -1 -1 -1 -1 0 0 0 1 2 3 3 4 4 5 6 6 6 7 8 8 8 9 9 9 9 9 9 9 10 10 10 10 11 11 11 12 13 14 14 15 15 15 16 17 17 17 17 17 16 16 16 16 16 16 16 16 16 16
-5 -5 -4 -4 -4 -4 -4 -4 -4 -4 -3 -3 -3 -3 -3 -3 -3 -3 -3 -3 -3 -3 -3 -2 -2 -2 -2 -1 -1 -1 -1 -0 0 -0 -0 0 1 2 2 3 3 4 4 5 6 7 8 8 9 9 9 10 10 10 9 9 10 10 10 10 11 11 11 12 13 14 14 14 15 15 16 16 17 17 17 16 16 16 16 16 16 16 16 16 16 16
-5 -5 -4 -4 -4 -4 -4 -4 -4 -4 -4 -3 -3 -3 -3 -3 -3 -3 -3 -3 -3 -3 -3 -2 -2 -2 -1 -1 -1 -1 -1 -0 -1 -1 -1 -0 0 1 1 1 2 3 4 4 5 7 8 8 9 9 10 10 10 10 10 10 9 10 10 10 11 11 11 12 13 14 14 15 15 15 15 16 16 17 16 16 16 16 16 16 16 16 16 16 16 16
-5 -5 -4 -4 -4 -4 -4 -4 -4 -4 -4 -4 -4 -4 -4 -4 -4 -4 -3 -3 -3 -3 -3 -2 -2 -2 -1 -1 -1 -1 -1 -1 -1 -1 -1 -1 -0 0 0 0 1 2 3 4 5 6 8 8 8 9 9 10 10 10 10 9 9 9 10 10 11 11 11 12 13 14 14 14 15 15 15 16 16 16 16 16 16 16 16 16 16 16 16 16 16 16
-5 -5 -5 -5 -5 -5 -5 -5 -5 -4 -4 -4 -4 -4 -4 -4 -4 -4 -4 -3 -3 -3 -2 -2 -2 -2 -1 -1 -1 -1 -1 -2 -2 -2 -2 -2 -1 0 0 0 1 2 3 4 5 6 7 8 8 9 9 10 10 10 10 9 9 9 10 10 11 11 11 12 13 14 14 14 15 15 15 16 16 16 16 16 16 16 16 16 16 17 16 16 16 16
-5 -5 -5 -5 -5 -5 -5 -5 -5 -5 -5 -5 -4 -4 -4 -4 -4 -4 -4 -4 -3 -3 -2 -2 -2 -2 -2 -1 -1 -2 -2 -2 -2 -2 -2 -2 -1 -0 0 -0 0 1 2 3 5 6 7 8 9 9 9 10 10 10 10 9 9 9 10 11 11 11 11 12 13 14 14 14 15 15 15 15 16 16 16 16 16 16 16 16 16 16 16 16 16 16
-5 -5 -5 -5 -5 -5 -5 -5 -5 -5 -5 -5 -5 -5 -5 -5 -5 -4 -4 -4 -3 -3 -3 -3 -2 -2 -2 -2 -2 -2 -2 -3 -3 -3 -2 -2 -2 -1 -0 -0 0 1 2 3 5 6 7 8 9 9 9 10 10 10 9 9 9 10 10 11 11 11 11 12 13 14 14 14 15 15 15 15 16 16 16 16 16 16 16 16 16 16 16 16 16 16
-5 -5 -5 -6 -6 -6 -6 -6 -6 -6 -5 -5 -5 -5 -5 -5 -5 -5 -4 -4 -3 -3 -3 -3 -3 -3 -2 -2 -2 -2 -3 -3 -3 -3 -3 -2 -2 -1 -0 -0 0 1 2 3 4 6 7 8 9 9 10 10 10 9 9 9 10 10 10 11 11 11 11 12 13 14 14 14 15 15 15 15 15 15 16 16 16 16 16 16 16 16 16 16 16 16
-5 -6 -6 -6 -6 -6 -6 -6 -6 -6 -6 -5 -5 -5 -5 -5 -5 -5 -4 -4 -4 -3 -3 -3 -3 -3 -3 -3 -3 -3 -3 -3 -3 -3 -3 -2 -2 -2 -1 -0 0 1 2 3 4 5 7 8 9 9 10 10 9 9 9 9 10 10 10 10 10 11 12 13 13 14 14 15 15 15 15 15 15 15 16 15 15 16 16 16 16 16 16 16 16 16
-6 -6 -6 -6 -6 -6 -6 -6 -6 -6 -6 -6 -6 -6 -6 -5 -5 -5 -4 -4 -4 -4 -4 -4 -3 -3 -3 -3 -3 -3 -3 -3 -3 -3 -2 -2 -2 -1 -1 -0 1 2 2 3 4 5 7 9 9 9 10 9 9 9 9 10 10 10 10 10 11 11 12 13 13 14 14 15 15 15 15 15 15 15 16 16 16 16 16 16 17 17 16 16 16 16
-6 -6 -6 -7 -7 -7 -6 -6 -6 -6 -6 -6 -6 -6 -6 -5 -5 -5 -4 -4 -4 -4 -4 -4 -4 -4 -4 -4 -4 -4 -3 -4 -3 -3 -2 -2 -1 -1 -0 1 1 2 2 3 4 5 7 9 9 9 9 9 9 9 9 10 10 10 10 10 11 12 13 13 13 14 14 15 15 15 15 15 15 15 16 16 16 16 16 16 17 17 16 16 16 16
-6 -7 -7 -7 -7 -7 -7 -7 -7 -6 -6 -6 -6 -6 -6 -6 -5 -5 -4 -4 -4 -4 -4 -4 -4 -4 -4 -4 -4 -4 -3 -3 -3 -3 -2 -1 -0 0 0 1 1 1 2 3 4 5 7 9 9 9 9 9 10 10 10 10 10 10 10 11 11 12 13 13 13 14 14 14 15 15 15 15 15 15 15 16 16 16 16 16 16 16 16 16 16 16
-7 -7 -7 -7 -7 -7 -7 -7 -7 -6 -6 -6 -6 -6 -6 -5 -5 -5 -5 -5 -5 -5 -5 -5 -4 -4 -4 -4 -3 -3 -3 -3 -3 -2 -1 -0 0 0 -0 -0 0 1 2 3 3 4 7 9 9 9 9 9 9 10 10 10 10 10 10 11 11 12 13 13 13 14 14 14 15 15 15 15 15 15 15 15 16 16 16 16 16 16 16 16 16 16
-7 -7 -7 -6 -6 -6 -6 -6 -6 -6 -5 -5 -5 -5 -5 -5 -5 -5 -5 -5 -5 -5 -4 -4 -4 -4 -4 -3 -3 -3 -3 -3 -3 -2 -1 -1 -1 -1 -1 -1 0 1 2 2 3 4 6 9 9 9 9 9 9 10 10 10 10 10 10 11 11 12 13 13 13 14 14 14 14 15 15 15 15 15 15 15 15 15 16 16 16 16 15 15 15 15
-7 -6 -6 -6 -6 -6 -6 -5 -5 -5 -5 -5 -5 -5 -5 -5 -5 -5 -5 -5 -4 -4 -4 -4 -4 -4 -4 -4 -3 -3 -3 -3 -3 -3 -2 -2 -1 -1 -1 -1 0 1 2 2 2 3 5 9 10 9 9 9 9 9 10 10 10 10 10 11 11 12 13 13 13 13 14 14 14 15 15 15 15 15 15 15 15 15 15 15 15 15 15 15 15 15
-7 -7 -7 -7 -6 -6 -6 -6 -6 -6 -5 -5 -5 -5 -5 -5 -5 -5 -4 -4 -4 -4 -4 -4 -4 -4 -4 -4 -3 -3 -3 -3 -3 -3 -2 -2 -2 -1 -1 -0 0 1 1 1 1 3 5 8 10 9 9 9 9 9 10 10 10 10 10 11 11 12 12 13 13 13 14 14 14 14 15 15 15 15 15 15 15 15 15 15 15 15 15 15 15 15
-7 -7 -7 -7 -7 -7 -7 -6 -6 -6 -6 -6 -5 -5 -5 -5 -5 -5 -5 -5 -5 -5 -5 -5 -4 -4 -4 -4 -3 -3 -3 -4 -3 -3 -3 -2 -2 -1 -1 -1 -1 -0 -0 0 1 3 6 9 10 9 9 9 9 9 9 10 10 10 10 11 11 11 12 13 13 13 13 14 14 14 14 15 15 15 15 15 15 15 15 15 15 15 15 15 15 15
-8 -8 -8 -8 -8 -7 -7 -7 -7 -7 -7 -6 -6 -6 -5 -5 -5 -5 -5 -5 -6 -5 -5 -5 -5 -4 -4 -4 -4 -4 -4 -3 -3 -3 -3 -3 -2 -2 -1 -1 -1 -1 -1 -0 1 4 7 9 10 9 9 9 9 9 9 9 10 10 10 10 10 11 12 13 13 13 13 14 14 14 14 15 15 15 15 15 15 14 14 14 14 15 15 15 15 14
-9 -8 -8 -8 -8 -8 -8 -8 -8 -7 -7 -7 -6 -6 -6 -6 -6 -6 -6 -6 -6 -6 -5 -5 -5 -5 -4 -4 -4 -4 -3 -3 -2 -3 -3 -3 -2 -2 -2 -2 -2 -1 -1 -1 1 5 8 10 10 9 9 9 9 9 10 10 10 10 10 10 10 11 11 12 13 13 13 13 14 14 14 14 15 15 15 15 15 14 14 14 14 14 14 14 14 14
-9 -8 -8 -8 -8 -8 -8 -8 -8 -8 -7 -7 -7 -7 -7 -7 -7 -6 -6 -6 -6 -6 -6 -5 -5 -5 -5 -4 -4 -4 -3 -3 -3 -3 -4 -3 -3 -2 -2 -2 -2 -2 -1 -1 1 3 7 9 9 9 9 9 9 10 10 10 10 10 10 10 10 10 11 12 13 13 13 13 14 14 14 14 15 15 15 15 15 15 14 14 14 14 14 14 14 14
-9 -8 -8 -8 -8 -8 -8 -8 -8 -8 -8 -8 -8 -7 -7 -7 -7 -7 -7 -7 -6 -6 -6 -6 -6 -5 -5 -5 -5 -4 -4 -4 -4 -4 -4 -4 -3 -3 -3 -2 -2 -2 -2 -1 -1 1 4 7 9 9 9 9 9 9 9 10 10 10 10 10 10 10 11 12 12 13 13 13 13 14 14 14 15 15 15 15 15 15 15 15 14 14 14 14 14 14
-9 -8 -8 -8 -8 -8 -8 -8 -8 -8 -8 -8 -8 -8 -7 -7 -7 -7 -7 -7 -7 -7 -6 -6 -6 -6 -5 -5 -5 -5 -5 -4 -4 -4 -4 -4 -3 -3 -3 -3 -3 -2 -2 -1 -1 -1 2 5 8 9 10 9 9 9 9 9 10 10 10 10 10 10 11 11 12 12 13 13 13 14 14 14 15 15 15 15 15 15 15 15 14 14 14 14 14 14
-9 -8 -8 -8 -8 -8 -8 -8 -8 -8 -8 -8 -8 -8 -8 -7 -7 -7 -7 -7 -7 -7 -7 -6 -6 -6 -6 -5 -5 -5 -5 -5 -4 -4 -4 -4 -4 -3 -3 -3 -3 -2 -2 -1 -1 -1 0 3 6 9 10 10 9 9 10 10 10 10 10 10 10 10 11 11 12 12 12 13 13 13 14 14 14 15 15 15 14 14 14 15 14 14 14 14 14 14
-8 -8 -8 -8 -8 -8 -8 -8 -8 -8 -8 -8 -8 -8 -8 -8 -7 -7 -7 -7 -7 -7 -7 -7 -6 -6 -6 -6 -5 -5 -5 -4 -4 -4 -4 -4 -4 -4 -3 -3 -3 -3 -2 -2 -1 -1 0 1 5 9 10 10 9 9 10 10 10 10 10 10 10 10 10 11 11 12 12 12 13 13 13 14 14 14 14 14 14 14 14 14 14 14 14 14 14 14
-8 -8 -8 -8 -8 -8 -8 -8 -8 -8 -8 -8 -8 -8 -8 -8 -7 -7 -7 -7 -7 -7 -7 -7 -6 -6 -6 -6 -6 -5 -5 -4 -4 -4 -4 -4 -4 -4 -4 -3 -3 -3 -2 -2 -1 -1 -0 -0 3 8 10 10 9 9 9 10 10 10 10 10 10 10 10 11 11 12 12 12 12 13 13 13 14 14 14 14 14 14 14 14 14 14 14 14 14 14
-8 -8 -8 -8 -8 -8 -8 -8 -8 -8 -8 -8 -8 -8 -8 -8 -7 -7 -7 -7 -7 -7 -6 -6 -6 -6 -6 -6 -6 -5 -5 -4 -4 -4 -4 -4 -4 -4 -4 -4 -3 -3 -3 -2 -2 -1 -1 -1 2 7 10 10 9 9 9 10 10 10 10 10 10 10 10 11 11 11 12 12 12 12 13 13 13 14 14 14 14 14 14 14 14 14 14 14 14 14
-8 -8 -8 -8 -8 -8 -8 -8 -8 -8 -8 -8 -8 -8 -8 -7 -7 -7 -7 -7 -6 -6 -6 -6 -6 -6 -5 -5 -5 -5 -5 -4 -4 -3 -3 -3 -4 -4 -4 -4 -3 -3 -3 -2 -2 -1 -1 -1 2 5 8 9 9 9 9 9 9 9 9 9 9 10 10 10 11 11 12 12 12 12 12 13 13 13 13 13 13 13 13 13 14 14 14 14 14 14
-8 -8 -8 -8 -8 -8 -8 -8 -8 -8 -8 -8 -8 -8 -7 -7 -7 -7 -7 -6 -6 -6 -6 -5 -5 -5 -5 -5 -4 -4 -4 -4 -3 -3 -3 -3 -3 -3 -3 -3 -3 -3 -2 -2 -2 -1 -1 -1 1 3 6 8 9 9 9 9 9 9 9 9 9 9 9 10 11 11 11 12 12 12 12 12 13 13 12 12 12 13 13 13 13 13 13 14 14 14
-8 -8 -8 -8 -8 -8 -8 -8 -8 -8 -8 -8 -8 -8 -7 -7 -7 -7 -6 -6 -6 -5 -5 -5 -5 -4 -4 -4 -4 -3 -3 -3 -3 -2 -2 -2 -2 -2 -2 -2 -2 -2 -2 -2 -1 -1 -1 -1 -0 0 3 9 10 9 9 9 9 9 8 8 8 8 9 9 10 11 11 11 12 12 12 12 12 12 12 12 12 12 13 13 13 13 13 13 13 13
-8 -8 -8 -8 -8 -8 -8 -8 -8 -8 -8 -8 -8 -7 -7 -7 -7 -6 -6 -6 -5 -5 -5 -5 -4 -4 -4 -4 -3 -3 -3 -2 -2 -2 -2 -2 -2 -2 -2 -1 -1 -1 -1 -1 -1 -1 -1 -0 -0 0 2 7 10 9 9 8 8 8 8 8 7 7 8 9 10 10 11 11 11 12 12 12 12 12 12 12 12 13 13 13 13 13 13 14 13 13
-8 -8 -8 -8 -8 -8 -8 -8 -8 -8 -8 -8 -7 -7 -7 -7 -7 -6 -6 -6 -5 -5 -5 -4 -4 -4 -4 -3 -3 -3 -2 -2 -2 -2 -2 -2 -1 -1 -1 -1 -0 -0 -0 -0 -0 -0 -0 -0 0 1 3 6 9 9 8 8 8 8 8 8 7 8 8 8 9 9 10 10 11 11 12 12 12 12 12 12 12 13 13 13 13 13 13 13 13 13
-8 -8 -8 -8 -8 -8 -8 -8 -8 -8 -8 -8 -7 -7 -7 -7 -7 -6 -6 -6 -5 -5 -5 -5 -4 -4 -4 -3 -3 -3 -2 -2 -2 -2 -1 -1 -1 -1 -0 0 0 1 0 0 -0 -0 0 1 2 2 3 7 9 9 8 8 8 7 7 7 7 7 7 7 7 8 9 9 10 11 11 11 11 12 12 12 12 12 13 13 13 13 13 13 13 13
-8 -8 -8 -8 -8 -8 -8 -8 -8 -8 -8 -8 -7 -7 -7 -7 -6 -6 -6 -6 -5 -5 -5 -5 -4 -4 -4 -3 -3 -3 -3 -2 -2 -1 -1 -1 -1 -0 0 0 1 1 1 1 1 1 1 2 3 4 5 8 9 8 8 7 7 7 7 7 7 7 6 6 7 7 8 8 8 9 10 10 11 11 11 12 12 12 12 13 13 13 13 13 13 13
-8 -8 -8 -8 -8 -8 -8 -8 -8 -8 -8 -7 -7 -7 -7 -7 -6 -6 -6 -6 -5 -5 -5 -5 -4 -4 -4 -3 -3 -3 -3 -2 -2 -1 -1 -1 -0 -0 0 1 1 1 1 1 1 1 1 2 4 6 8 8 8 8 8 7 7 6 6 6 6 6 6 6 7 7 7 7 7 8 9 10 10 11 10 11 11 11 12 12 12 12 12 13 13 13
-8 -8 -8 -8 -8 -8 -8 -8 -8 -8 -8 -7 -7 -7 -7 -7 -6 -6 -6 -6 -6 -5 -5 -5 -4 -4 -4 -4 -3 -3 -3 -3 -2 -2 -1 -1 -0 0 0 1 1 1 1 1 1 1 1 2 4 7 8 8 8 7 7 7 7 6 6 6 6 6 6 6 7 7 7 7 7 7 8 9 10 10 9 9 9 10 11 11 12 12 12 12 12 12
-8 -8 -8 -8 -8 -8 -8 -8 -8 -8 -8 -7 -7 -7 -7 -7 -6 -6 -6 -6 -6 -5 -5 -5 -4 -4 -4 -4 -4 -4 -3 -3 -3 -3 -2 -1 -1 0 0 1 1 1 1 1 1 1 1 2 4 6 7 7 7 6 6 6 6 6 6 5 5 6 6 6 6 7 7 7 7 7 8 8 9 8 8 8 8 8 9 10 11 11 12 12 12 12
-8 -8 -8 -8 -8 -8 -8 -8 -8 -8 -8 -7 -7 -7 -7 -7 -6 -6 -6 -6 -6 -5 -5 -5 -5 -4 -4 -4 -4 -4 -3 -3 -3 -3 -3 -2 -2 -1 0 1 1 2 2 2 2 2 1 2 3 4 5 5 5 5 5 6 6 6 5 5 5 5 5 5 6 7 7 7 6 6 7 8 8 7 7 7 7 7 8 9 9 10 11 11 12 12
-8 -8 -8 -8 -8 -8 -8 -8 -8 -8 -8 -7 -7 -7 -7 -7 -6 -6 -6 -6 -6 -5 -5 -5 -5 -4 -4 -4 -4 -4 -3 -3 -3 -3 -3 -3 -2 -2 -1 0 1 2 2 2 2 2 2 2 2 2 3 3 4 4 5 5 5 5 5 5 5 5 5 5 6 6 7 7 6 6 6 7 7 7 8 7 6 6 7 7 8 9 10 11 11 11
-8 -8 -8 -8 -8 -8 -8 -8 -8 -8 -8 -7 -7 -7 -7 -7 -7 -6 -6 -6 -6 -5 -5 -5 -5 -5 -4 -4 -4 -4 -4 -4 -3 -3 -3 -3 -2 -2 -1 -1 0 1 2 3 3 3 3 2 2 2 2 3 3 3 4 4 5 5 5 5 5 5 5 5 5 6 7 7 6 6 6 6 7 7 7 7 6 6 6 7 7 8 9 10 10 11
-8 -8 -8 -8 -8 -8 -8 -8 -8 -8 -8 -7 -7 -7 -7 -7 -7 -6 -6 -6 -6 -5 -5 -5 -5 -5 -4 -4 -4 -4 -4 -4 -4 -3 -3 -3 -2 -2 -2 -1 -0 1 2 3 3 3 3 3 2 2 2 2 2 3 3 3 4 4 4 4 4 5 5 5 5 6 6 6 6 6 6 5 6 6 7 7 6 6 6 6 7 7 8 9 9 10
Height
727 725 724 722 721 719 717 715 714 712 710 708 707 705 704 703 702 700 699 698 696 694 693 691 689 688 687 686 686 685 684 684 683 682 682 681 680 680 679 678 678 676 675 674 673 672 672 671 672 672 673 672 672 672 672 672 672 672 671 671 672 673 674 675 677 679 681 683 685 687 689 690 692 694 696 698 700 703 704 707 709 712 715 718 720 722
726 724 723 722 721 719 716 714 713 712 710 708 706 705 704 702 700 699 697 696 694 693 692 690 688 687 686 685 684 684 683 682 682 681 680 679 679 678 677 676 675 674 673 672 671 670 670 670 670 671 671 671 670 670 670 670 670 670 669 669 670 671 672 673 674 677 679 681 683 685 687 688 690 692 694 696 699 700 702 704 707 710 713 716 719 720
726 724 722 721 720 719 716 714 713 711 710 708 706 704 703 701 700 698 696 695 693 692 690 689 687 686 685 684 683 682 681 680 680 679 679 678 677 676 675 674 674 673 671 670 670 669 669 669 669 669 669 669 669 668 668 668 668 668 668 668 669 670 671 671 673 675 677 679 681 683 685 686 688 690 692 694 696 698 700 702 705 707 711 714 718 720
726 724 722 721 719 718 716 714 712 710 709 707 705 704 702 701 699 698 696 694 692 690 689 688 687 685 684 682 681 680 679 679 678 678 677 676 675 674 674 673 672 671 670 669 668 668 667 667 666 666 666 667 667 666 666 666 666 666 666 667 668 669 669 670 671 673 675 677 679 681 683 684 686 688 690 692 694 696 698 700 703 706 709 713 717 719
726 724 723 721 719 717 715 714 712 710 708 706 704 703 702 700 699 697 695 693 691 690 688 687 685 684 682 681 679 678 678 677 676 676 675 674 673 672 672 671 670 669 668 667 666 666 665 665 664 664 664 664 664 664 664 664 664 664 665 666 666 667 668 669 669 671 673 675 677 679 680 682 684 686 688 689 692 694 697 699 701 704 707 711 715 717
725 724 723 721 719 717 715 713 711 709 707 705 704 702 701 699 698 696 694 692 691 689 687 685 684 682 681 680 679 677 676 675 674 674 673 672 671 670 669 668 667 667 666 665 665 664 663 663 662 662 662 662 662 662 662 662 662 663 663 664 665 666 667 668 668 669 671 673 675 677 678 680 682 684 686 688 690 693 695 698 700 702 705 709 712 714
725 724 723 721 719 717 715 713 711 709 707 705 703 701 700 698 697 695 694 692 690 688 686 684 682 680 679 679 678 676 675 674 673 671 670 669 669 668 667 666 665 664 664 663 663 662 661 661 660 660 660 660 660 660 660 660 660 660 661 662 663 664 665 666 666 667 669 671 673 674 676 678 679 682 684 686 689 691 694 696 698 700 703 706 709 711
724 723 722 720 718 716 714 712 711 709 707 705 703 701 699 697 696 694 693 691 690 688 685 683 680 679 678 677 676 675 674 672 671 669 669 668 667 666 665 664 663 662 662 661 661 660 659 659 658 658 658 658 659 659 659 658 658 659 659 660 661 663 664 664 664 665 667 669 671 673 674 675 677 679 682 684 687 689 692 694 696 698 701 704 707 709
724 722 720 719 718 716 713 711 710 709 707 705 703 701 699 697 694 693 691 690 689 687 685 682 680 677 676 675 674 674 673 671 670 669 667 666 665 664 663 663 662 661 660 659 659 658 657 656 656 656 656 656 657 657 657 656 657 657 658 659 660 661 662 663 663 663 664 667 669 670 672 673 675 678 680 682 685 688 689 691 693 696 699 702 704 707
723 722 720 718 717 715 714 711 709 708 707 705 703 701 699 697 695 693 690 689 687 686 684 683 680 677 674 673 672 672 671 669 668 667 667 665 664 663 662 661 660 659 658 657 656 655 654 654 654 654 654 654 655 655 655 654 654 655 656 657 658 659 659 660 660 660 662 664 666 668 670 671 673 676 678 680 683 685 687 689 691 693 695 699 702 704
722 721 719 718 716 714 713 711 709 707 706 704 702 701 699 698 697 694 691 688 686 684 683 682 680 678 675 672 670 670 669 668 666 665 664 663 662 661 660 659 658 656 655 654 653 653 652 652 652 652 652 653 653 654 653 652 652 653 654 655 656 657 657 657 657 658 660 662 664 666 668 669 671 674 676 679 680 682 684 686 689 690 693 695 699 702
721 720 719 717 715 713 712 710 709 707 705 704 702 700 699 698 697 696 693 690 687 684 683 680 679 677 675 673 670 669 667 666 664 663 662 660 659 659 658 656 655 654 653 651 651 650 650 650 650 650 651 651 651 652 651 650 650 650 652 653 654 654 654 654 654 655 657 660 662 664 666 667 669 672 675 677 679 680 682 684 686 688 690 693 696 699
721 719 718 716 714 713 711 710 709 707 705 704 702 700 699 697 697 695 694 691 688 686 683 680 678 675 674 672 671 669 666 665 663 661 659 658 657 657 656 654 653 652 650 649 649 648 648 648 648 649 649 649 649 650 649 648 648 649 650 652 653 653 652 652 652 654 655 658 660 662 664 665 667 670 673 675 677 678 680 682 684 686 688 690 694 698
719 718 717 715 714 712 711 710 709 707 705 704 702 701 699 698 696 695 693 691 688 686 684 681 678 674 672 671 670 669 667 664 662 659 657 656 656 656 655 654 652 650 649 648 647 646 646 646 646 647 647 647 648 648 647 647 647 648 649 650 650 650 649 650 650 652 654 656 658 660 662 663 665 669 671 674 675 677 678 680 681 684 686 689 692 696
719 718 716 714 713 712 711 710 709 707 705 704 703 701 699 698 696 695 693 691 688 686 684 681 677 674 672 670 669 668 667 664 662 659 657 655 654 654 654 653 651 649 648 647 646 644 644 644 644 644 645 645 645 645 645 645 646 647 647 648 648 647 647 648 649 650 652 654 656 658 660 662 664 667 670 672 673 675 676 678 679 682 684 688 691 694
718 717 715 713 712 711 710 710 709 707 705 704 702 701 699 698 696 695 694 691 688 686 683 680 677 674 671 669 669 669 667 665 664 661 659 655 653 653 654 653 651 648 646 645 644 643 643 642 642 642 643 643 643 644 644 644 644 645 644 645 645 645 645 646 647 648 650 652 654 656 658 660 663 665 668 670 671 673 674 676 678 680 683 687 690 693
717 715 714 712 711 710 710 709 709 707 705 704 702 701 699 698 696 695 694 691 689 686 684 682 679 676 672 669 668 668 668 667 665 663 661 657 653 652 653 653 651 648 645 644 643 642 641 641 640 640 640 640 641 642 642 642 642 642 642 642 643 643 643 644 645 646 648 650 653 655 657 659 661 664 666 668 669 671 673 675 677 679 682 685 688 691
714 713 712 711 710 709 709 709 708 707 705 704 702 700 699 698 697 695 694 691 689 687 685 683 681 679 675 671 669 669 669 669 667 665 662 658 654 652 652 653 651 648 645 642 641 640 639 639 638 638 638 638 639 639 640 640 639 639 640 640 640 640 641 642 643 644 646 649 651 653 655 657 659 661 664 665 667 669 671 674 676 678 681 684 687 689
713 712 711 711 710 709 709 708 708 706 705 703 701 700 699 697 696 695 693 691 689 687 685 684 682 680 677 674 671 670 670 670 669 666 663 659 655 652 652 652 650 647 644 641 639 638 638 637 636 636 636 637 638 638 638 638 637 637 638 638 638 638 639 639 641 643 644 647 649 651 653 655 658 659 661 663 665 667 669 672 674 677 680 682 685 688
711 711 710 710 710 709 708 707 707 706 704 703 701 700 698 697 695 694 692 690 688 687 686 684 682 680 677 674 672 670 670 671 670 667 664 660 656 653 652 651 650 647 643 640 638 636 636 635 634 634 634 635 636 636 636 636 636 636 636 637 637 637 637 637 639 641 643 645 647 649 651 654 655 657 659 661 664 665 667 670 673 675 678 681 683 686
711 710 710 710 710 709 707 706 705 705 704 703 701 699 698 696 694 693 691 689 688 686 685 684 682 679 677 675 672 670 670 671 670 668 664 660 656 653 651 651 649 647 643 639 636 634 634 633 632 632 633 633 634 634 634 634 634 634 635 636 636 635 635 636 637 639 641 643 645 648 650 652 654 655 657 659 662 664 666 668 671 674 676 679 682 685
710 709 708 709 708 707 706 704 703 703 703 702 700 699 697 695 693 691 689 688 687 685 684 683 681 679 677 675 672 670 670 670 670 668 665 660 655 651 651 650 649 646 643 639 635 633 632 631 630 630 631 632 632 633 633 633 633 634 635 635 634 633 633 634 636 638 639 642 644 646 648 650 652 654 655 658 660 663 664 667 669 672 674 678 681 684
709 708 707 706 706 705 704 702 701 700 700 699 698 696 694 693 691 689 688 687 686 684 683 681 679 677 676 674 671 669 669 669 669 667 664 660 654 651 650 649 648 645 641 638 634 632 631 629 629 629 629 630 631 632 632 632 633 634 634 633 632 631 632 633 635 636 638 640 642 644 647 649 650 652 654 657 659 661 664 666 668 670 673 676 680 683
707 706 705 704 703 702 701 700 699 698 697 696 694 693 692 691 690 689 687 686 685 684 682 680 678 675 674 672 670 669 668 667 667 666 663 659 654 651 649 649 647 644 639 636 634 631 630 628 627 627 628 629 630 630 631 631 632 634 634 633 631 630 631 632 634 635 637 639 641 643 645 647 649 651 653 655 658 660 662 664 667 670 673 676 679 682
706 704 703 702 701 700 699 698 697 696 695 694 693 691 690 690 689 688 686 685 684 683 681 679 676 674 672 671 669 667 666 666 666 665 663 659 655 651 649 648 647 644 639 635 632 630 629 627 626 625 627 627 628 629 630 630 632 633 633 632 631 630 630 632 633 634 636 638 640 642 644 646 648 650 652 654 656 659 661 663 666 669 673 675 679 682
704 703 701 700 699 698 697 696 695 694 694 693 691 690 689 689 688 686 685 684 683 681 680 678 676 674 672 670 668 666 664 664 664 663 662 659 655 651 649 648 647 644 640 635 631 629 628 625 624 624 625 626 627 628 628 629 630 631 632 631 630 629 629 631 632 634 635 637 639 641 643 645 647 649 651 653 655 657 660 662 665 669 672 675 678 681
702 701 700 699 698 697 695 694 694 693 692 691 690 689 689 687 686 685 684 682 682 681 679 678 675 673 671 669 667 664 663 662 662 661 660 658 655 652 649 648 647 644 640 635 630 626 626 624 622 622 623 624 625 626 627 628 629 630 631 630 629 629 629 630 631 633 634 636 638 640 642 644 646 648 650 652 654 656 659 662 664 668 671 675 678 681
701 699 698 697 696 695 694 693 692 691 690 690 689 688 688 686 685 684 682 681 681 680 679 677 675 673 671 668 665 664 662 661 660 659 659 658 655 652 649 648 647 644 640 635 628 624 622 621 621 621 622 623 624 625 626 627 628 629 630 630 629 628 628 629 630 631 633 634 636 639 641 643 645 647 649 650 653 656 658 661 664 667 671 674 677 680
699 698 697 696 695 694 693 692 691 690 689 688 688 687 686 685 684 683 682 681 680 680 678 677 675 674 671 668 665 663 661 660 659 659 658 657 655 652 650 649 646 644 640 635 628 622 619 618 619 620 621 622 623 624 625 626 627 628 629 629 628 627 627 627 629 630 631 633 635 638 640 642 644 645 647 649 652 655 658 661 664 667 670 673 676 679
698 697 695 694 693 692 691 690 689 689 688 687 686 685 685 684 683 682 681 680 680 679 678 676 675 674 672 669 666 663 660 659 659 659 658 657 654 651 649 648 646 644 642 638 632 624 618 616 618 619 620 621 622 623 624 625 627 628 629 629 628 627 626 626 627 629 630 632 634 637 639 641 643 644 646 649 652 655 658 660 663 666 669 672 675 677
697 695 694 693 692 691 690 689 688 687 687 686 685 684 683 683 682 681 680 680 679 678 677 675 674 673 672 670 668 664 659 657 657 658 658 657 654 650 648 646 644 643 642 641 638 630 621 616 617 619 620 620 621 622 624 625 627 628 628 629 628 627 625 624 625 627 629 631 633 636 638 640 642 643 645 648 652 655 658 660 663 665 668 671 674 676
696 695 694 692 691 690 689 688 687 686 685 684 684 683 682 682 681 680 679 679 678 677 676 675 674 673 672 670 668 664 660 657 656 656 657 655 652 649 647 646 644 642 642 642 641 637 629 620 617 619 619 620 621 622 624 625 626 627 628 628 628 626 624 623 624 626 628 630 633 635 638 639 641 642 645 648 652 654 657 659 662 664 667 670 672 675
695 694 693 692 690 689 688 687 686 685 684 683 682 682 681 680 680 679 678 677 677 676 675 674 673 672 670 669 667 664 660 656 655 655 655 654 651 648 646 645 643 641 640 639 639 638 633 625 620 618 619 619 621 622 624 624 625 626 627 628 627 625 623 622 623 625 627 630 633 635 637 639 640 642 645 648 651 654 657 659 661 664 666 669 671 674
694 693 692 691 689 689 687 686 685 684 683 682 681 680 680 679 678 677 677 676 675 674 674 673 672 671 669 668 665 662 659 655 654 654 654 653 651 648 645 644 643 641 639 638 636 635 632 627 621 618 618 619 621 622 623 624 624 625 628 628 627 624 622 621 622 624 626 629 632 634 637 639 640 643 645 648 651 654 656 659 661 664 666 668 670 673
694 693 691 690 689 688 686 685 684 683 682 681 680 679 679 678 677 676 675 674 674 673 672 671 670 670 669 667 664 661 657 654 653 653 653 652 650 648 645 643 641 640 639 637 635 634 631 626 620 616 616 618 620 622 623 623 624 626 628 628 626 624 621 621 621 623 625 628 631 634 635 637 639 642 645 648 651 653 656 658 661 663 666 668 670 672
694 692 691 689 688 687 686 684 683 682 681 680 679 678 677 676 675 674 673 672 671 671 670 669 668 668 667 665 664 660 656 653 652 652 652 651 650 649 646 643 640 639 638 636 635 634 631 627 621 616 614 616 618 620 622 624 625 627 629 628 625 623 621 620 621 622 624 627 629 632 634 635 638 641 644 647 650 653 656 658 661 663 666 668 670 672
693 692 690 689 688 687 685 684 683 681 680 679 678 677 676 674 673 672 671 670 669 669 668 667 666 665 664 663 661 659 656 653 651 651 650 650 650 649 647 643 640 639 638 636 634 633 631 629 624 618 613 614 616 619 622 623 625 627 629 627 624 622 621 620 621 622 624 625 628 630 632 634 636 639 643 647 650 653 656 659 661 664 666 669 671 673
693 691 690 689 687 686 685 684 682 681 679 678 677 675 674 673 672 670 669 668 667 666 665 664 663 662 661 660 659 657 654 653 651 649 649 648 648 647 645 643 639 637 636 636 634 633 632 630 626 620 614 613 615 618 621 623 625 627 626 625 623 621 620 620 621 622 623 624 627 629 631 633 636 639 643 647 650 653 656 659 661 664 667 669 672 674
693 691 690 689 687 686 684 683 682 680 679 677 676 674 673 672 671 669 668 666 665 664 663 662 661 659 659 657 656 655 653 651 650 648 647 646 645 645 644 641 639 636 635 634 633 632 631 629 628 623 617 613 614 618 620 622 624 625 624 623 621 620 620 620 621 621 623 624 626 628 630 633 635 639 643 646 649 652 655 658 660 663 666 669 672 675
693 691 690 689 687 686 684 683 681 680 678 677 675 674 673 671 669 668 666 665 663 662 661 660 659 658 656 655 654 653 651 650 649 647 646 644 644 643 641 639 636 634 633 632 631 630 629 628 626 624 621 614 613 616 619 621 623 623 623 621 621 620 620 620 621 622 623 624 625 627 630 632 635 639 643 646 649 651 653 655 659 661 664 667 670 674
693 691 690 688 687 685 684 683 681 679 678 676 675 674 672 670 669 667 665 663 662 660 659 658 657 655 654 654 652 651 650 649 648 646 645 644 642 641 639 637 634 632 630 629 628 627 626 625 624 623 621 616 614 616 620 622 624 624 622 621 621 621 621 620 621 622 623 624 626 627 629 633 636 639 643 646 648 650 652 654 657 660 663 665 668 670
693 692 690 689 687 685 684 682 681 679 678 676 675 673 672 670 669 667 665 663 661 659 658 656 655 654 653 652 651 650 649 648 646 645 644 642 640 638 637 635 632 630 629 627 626 625 624 623 622 620 619 616 615 617 621 623 624 623 622 621 620 619 620 621 622 622 623 625 627 629 631 634 637 640 643 646 649 651 653 654 657 659 662 665 667 669
694 692 690 689 687 685 684 682 680 679 677 676 674 673 672 670 669 667 666 664 662 660 658 656 655 654 653 651 649 648 647 646 644 643 642 640 638 637 635 634 632 630 629 626 624 623 621 620 619 618 616 616 616 617 621 623 623 622 621 620 619 618 620 623 624 624 624 626 628 629 632 634 637 639 643 646 649 651 653 655 657 659 661 664 666 669
694 692 691 689 687 685 684 682 680 679 677 676 674 673 671 670 669 668 666 664 663 661 659 657 655 654 652 651 649 647 646 644 643 642 640 639 637 636 634 633 632 630 628 626 624 621 619 617 615 614 613 614 616 619 622 624 624 622 621 620 619 620 622 624 625 625 626 627 629 631 632 634 636 639 642 645 648 650 653 655 657 659 661 663 665 668
694 693 691 689 687 686 684 682 681 679 678 676 674 673 671 670 669 668 667 665 664 662 660 658 655 654 652 651 649 648 645 644 642 640 639 638 637 635 634 632 631 629 627 625 623 621 619 616 614 613 614 614 617 619 622 623 623 623 623 622 622 623 624 625 625 626 627 629 631 632 634 634 636 638 642 645 648 650 652 654 657 659 661 663 665 667
695 693 691 689 688 686 685 683 681 680 678 676 675 673 672 670 669 668 667 666 664 663 661 659 657 655 654 652 650 648 646 644 642 640 639 637 636 634 633 632 630 629 627 625 623 621 618 616 614 613 614 616 619 621 623 623 624 624 625 625 625 625 626 626 627 628 629 630 632 633 634 635 636 638 642 645 648 650 652 654 656 659 661 663 665 667
695 694 692 690 689 687 685 684 682 680 679 677 675 674 672 670 669 668 667 666 664 663 661 659 658 656 654 652 650 649 647 645 643 641 640 638 636 634 633 631 630 629 628 627 625 623 620 617 615 615 616 618 621 623 625 624 624 625 626 626 627 627 628 629 629 630 631 632 634 634 635 635 637 639 642 645 647 650 652 654 657 659 661 663 665 668
697 695 693 691 689 688 686 684 683 681 679 678 676 674 673 671 669 668 667 665 664 663 662 660 658 656 654 652 651 649 648 646 645 643 641 639 637 635 633 632 630 629 629 628 627 625 623 620 619 619 619 621 623 625 626 626 626 626 627 628 629 629 630 632 633 634 634 635 636 636 637 637 639 640 643 645 648 651 653 655 658 660 662 664 666 669
698 696 694 692 691 689 687 685 684 682 680 679 677 675 673 672 670 669 667 666 664 663 662 660 659 657 655 653 651 650 649 647 646 644 643 640 638 636 634 632 631 630 629 629 628 627 625 622 621 621 623 624 625 627 628 628 628 629 629 630 631 632 634 635 636 637 637 638 639 639 640 641 641 641 643 646 649 653 655 657 659 661 663 665 667 669
699 697 695 694 692 690 688 687 685 683 681 679 678 676 674 672 671 669 668 666 665 664 663 662 660 658 656 654 653 651 650 648 647 645 644 642 639 637 635 634 632 630 630 629 629 628 626 624 623 624 625 627 628 629 629 630 630 630 631 633 634 635 636 638 639 639 639 640 642 643 644 644 644 644 644 647 650 654 656 659 661 663 665 666 669 670
699 698 696 694 693 691 689 688 686 684 683 681 679 678 676 674 672 670 668 667 665 665 664 663 662 660 659 657 655 653 652 650 648 646 644 643 641 639 637 635 633 631 630 629 629 628 626 625 626 627 628 629 630 631 631 632 632 632 634 636 637 638 639 640 640 640 640 642 644 646 648 648 647 647 646 648 651 655 659 661 663 665 667 668 669 671
Wind_Speed
21 23 24 24 24 25 25 25 25 25 25 24 24 24 24 24 25 25 25 25 25 26 26 25 25 25 24 24 23 23 22 22 22 22 22 22 22 23 24 25 26 27 27 26 26 24 22 21 20 19 18 18 18 18 20 21 22 20 16 14 13 15 21 30 37 40 41 42 41 40 39 37 36 38 41 44 45 45 46 48 51 52 53 53 52 50
22 23 23 23 24 24 24 25 25 24 24 24 24 24 24 25 26 26 25 25 25 25 25 25 25 24 24 24 25 24 23 22 22 22 23 23 23 24 25 26 27 27 26 26 25 25 24 23 22 20 18 18 18 19 20 21 22 21 17 15 14 15 19 28 34 37 39 41 41 41 39 37 37 39 41 44 44 44 45 48 50 51 51 52 51 50
22 22 23 23 23 23 24 25 25 25 25 24 24 24 24 25 25 25 25 25 25 25 24 23 23 23 24 25 25 25 24 23 22 23 23 24 25 26 26 27 27 27 26 25 25 25 26 25 23 20 17 17 18 19 20 21 23 22 19 16 16 16 19 25 30 33 36 39 41 41 39 37 37 38 40 42 43 44 45 47 49 49 50 51 51 50
21 21 22 23 23 23 23 24 25 25 24 24 23 23 23 24 24 24 24 25 25 25 23 22 22 23 25 25 25 25 23 22 22 22 23 24 25 26 27 27 27 26 26 25 25 26 27 27 24 20 16 16 17 19 20 22 23 23 21 18 17 17 19 23 27 29 32 37 40 41 40 37 37 38 39 41 42 43 44 46 48 49 49 51 51 50
21 21 22 23 23 23 24 24 24 24 24 23 23 22 23 23 23 24 24 24 24 23 23 23 23 24 25 25 24 23 22 22 23 23 23 24 25 25 26 27 27 26 25 25 26 27 28 27 23 19 16 16 17 19 21 22 24 25 23 21 19 18 19 23 25 26 30 36 40 41 39 37 37 37 39 40 42 44 45 46 47 48 50 52 51 49
21 21 22 22 22 22 23 23 23 23 23 22 22 22 22 23 23 23 23 22 22 22 23 24 25 25 24 23 22 22 22 23 23 23 23 23 23 24 25 25 25 25 25 25 26 27 28 26 22 18 16 16 18 20 21 23 25 26 25 23 20 19 19 24 25 25 28 34 38 40 39 37 37 37 38 40 43 46 47 47 48 49 51 53 51 49
22 22 22 21 22 22 22 22 22 22 22 21 21 22 22 23 22 22 21 21 22 23 24 24 25 24 22 21 21 21 22 23 23 22 22 21 21 22 23 24 25 25 26 26 26 26 26 25 22 18 16 16 18 20 22 23 25 27 27 25 22 20 19 23 24 24 27 33 37 38 38 37 36 37 38 40 43 47 49 49 49 50 51 52 50 48
21 22 22 21 22 22 22 21 21 21 21 21 21 21 22 22 21 21 21 22 22 23 23 23 23 23 22 22 21 22 22 22 22 21 20 20 20 21 22 23 25 26 26 26 25 25 25 24 21 18 17 17 18 20 22 23 25 27 29 27 24 21 20 21 23 25 26 31 36 37 37 36 35 36 37 39 43 47 50 51 51 51 51 51 49 47
20 21 22 21 21 20 20 21 21 21 21 21 21 20 20 21 21 21 22 22 22 22 21 21 22 23 23 23 22 22 21 21 20 20 19 19 20 21 22 23 24 25 26 25 24 24 24 23 21 19 18 17 18 20 22 24 25 27 29 29 26 23 21 20 21 24 26 31 35 37 37 36 35 35 36 39 42 46 50 52 52 51 52 52 50 48
19 20 20 21 20 19 18 19 21 22 22 22 20 19 18 18 19 21 22 22 22 21 20 21 22 22 23 24 24 23 22 21 20 19 18 19 20 21 21 22 23 24 24 24 23 23 23 23 22 20 19 18 18 20 23 24 26 27 30 30 27 24 22 20 21 25 27 31 35 36 36 36 35 35 35 38 41 45 49 51 52 52 52 52 51 49
19 19 19 19 19 19 18 18 20 21 22 21 19 17 16 16 17 19 20 22 22 22 22 21 21 22 22 24 25 25 24 23 21 20 19 20 21 22 21 21 21 22 22 22 22 22 23 24 23 21 19 19 19 20 23 25 26 28 31 31 29 26 23 20 22 27 28 32 35 37 36 36 36 35 35 37 39 43 46 49 50 52 52 52 51 50
18 18 18 18 18 17 18 18 19 20 20 18 16 15 15 16 17 18 18 19 21 22 23 23 23 22 22 23 24 25 25 23 21 20 22 24 24 24 23 22 21 20 20 19 20 21 23 24 23 22 20 20 20 21 23 25 27 30 32 32 29 26 23 20 23 28 30 33 36 37 36 36 36 35 35 36 38 41 44 46 48 50 51 51 51 51
17 17 17 17 17 16 16 17 18 18 17 16 14 13 15 17 18 18 18 19 20 21 22 23 23 23 22 22 23 23 23 21 20 21 24 25 26 25 25 24 23 22 20 19 19 21 23 24 24 23 22 21 21 21 23 25 28 31 33 33 30 27 23 20 23 29 31 33 36 37 36 36 35 35 35 36 38 40 42 44 45 47 48 50 51 52
16 17 16 16 15 15 15 16 16 16 16 15 15 15 17 18 19 19 18 19 20 21 21 21 22 22 22 21 20 20 19 19 22 25 26 26 26 26 24 24 24 24 23 21 20 21 22 23 24 24 23 22 22 22 23 25 28 30 32 32 30 27 23 21 24 30 32 34 36 37 37 36 36 36 36 36 38 40 42 43 43 44 45 47 49 50
16 15 14 13 13 14 15 15 15 16 16 17 17 18 18 18 18 17 17 18 20 20 20 20 21 21 20 18 16 16 16 20 23 24 26 28 28 26 24 23 24 25 24 23 22 21 21 22 23 25 25 24 23 23 24 25 27 29 31 31 29 26 23 21 25 30 32 34 36 37 36 36 36 36 36 37 38 40 42 43 42 41 42 45 47 47
16 15 13 12 13 14 15 15 15 16 18 19 19 18 17 16 16 17 17 18 19 19 17 17 17 17 17 17 15 14 16 20 21 22 24 26 28 27 24 23 23 24 25 24 23 22 21 22 23 25 26 25 24 23 24 25 27 28 29 30 29 26 23 21 25 30 32 34 35 36 36 36 36 36 37 37 38 40 42 42 41 41 41 42 44 45
17 15 14 12 12 13 15 16 16 17 18 19 18 17 15 15 16 17 18 18 17 16 14 13 9 7 11 16 16 15 17 20 21 22 22 24 26 28 26 22 21 24 26 26 24 22 22 22 24 26 27 26 25 24 24 24 26 28 29 30 28 26 23 22 26 30 32 33 35 35 36 36 36 37 37 37 38 40 41 42 41 41 41 41 42 43
16 15 13 11 11 14 16 17 17 18 18 17 17 16 15 15 16 17 18 17 16 14 13 13 10 7 6 9 14 18 20 21 21 22 22 23 25 28 28 24 22 23 25 26 25 23 22 23 25 27 27 26 25 24 24 24 26 27 29 30 28 26 23 22 26 30 32 33 34 35 35 35 36 37 37 37 38 39 40 41 41 42 42 41 41 42
14 12 10 10 12 15 16 17 17 17 17 16 16 16 16 17 17 17 17 16 15 14 13 12 12 12 11 13 17 21 22 21 21 21 21 22 24 26 28 25 22 22 24 24 24 24 23 23 25 27 27 24 23 23 23 24 25 26 28 29 29 27 23 23 27 30 32 33 34 35 35 35 36 37 37 37 38 39 40 40 41 41 42 41 41 41
13 11 10 11 13 16 18 19 18 18 17 17 17 18 18 19 18 18 17 15 14 14 15 14 14 15 16 18 21 23 24 23 21 20 20 21 23 25 25 23 20 20 22 24 24 23 23 23 26 27 26 23 21 21 22 22 23 25 27 28 29 26 23 24 28 30 31 33 34 34 35 35 36 37 37 37 38 39 39 39 40 41 41 41 41 41
14 14 14 14 15 16 18 19 19 18 18 18 19 19 19 18 18 17 16 15 15 15 16 15 16 17 19 20 23 25 25 23 20 18 18 19 21 22 22 20 19 19 21 24 25 24 23 21 25 27 26 22 20 20 21 21 22 23 24 25 25 23 23 26 28 29 31 32 33 34 34 35 36 36 37 37 38 39 39 39 40 40 41 41 42 42
17 17 17 16 17 18 20 21 21 21 20 20 20 19 19 18 17 16 16 16 15 16 17 17 18 20 21 23 24 26 27 24 21 19 17 15 17 20 20 18 18 18 20 23 25 25 22 19 23 26 24 22 20 20 20 20 20 20 20 21 20 19 24 26 28 29 30 31 33 33 34 34 35 36 37 38 38 39 39 40 40 41 41 41 42 43
17 17 18 18 19 21 22 23 23 22 22 22 22 22 21 19 18 17 16 16 16 18 19 21 22 22 22 22 23 25 25 23 21 19 15 10 11 16 18 18 18 18 19 21 23 24 21 17 21 24 23 22 21 21 21 20 19 17 18 19 16 18 25 27 28 29 30 31 32 33 33 33 34 35 37 38 39 40 40 41 41 42 42 42 43 44
18 20 21 21 22 23 23 23 23 22 22 22 23 23 22 20 19 18 17 18 18 19 21 21 21 21 20 20 20 21 21 20 19 17 13 9 10 14 18 19 19 18 20 22 23 23 21 16 20 23 22 21 21 22 21 20 17 15 16 17 14 16 25 27 28 29 31 32 32 32 32 33 33 34 36 37 39 40 41 42 42 43 44 44 44 45
21 22 22 22 23 22 22 22 22 22 21 21 20 19 18 18 18 19 19 19 19 19 18 18 17 16 17 18 18 17 18 16 15 14 13 11 13 17 20 20 18 17 19 22 25 25 20 15 19 22 21 20 21 22 21 19 16 13 13 15 12 15 24 27 28 29 31 32 32 32 32 32 32 33 34 36 37 39 41 42 43 44 45 45 45 45
21 21 22 22 21 21 21 22 22 21 21 21 20 19 19 18 18 18 17 17 16 15 15 13 11 12 16 16 16 16 16 15 15 14 13 11 11 15 18 18 17 17 19 23 26 25 19 14 19 21 19 20 20 20 21 18 15 13 12 13 11 14 23 28 28 28 31 32 32 32 32 32 32 32 33 34 35 37 39 41 42 44 45 45 45 45
20 20 20 20 20 20 20 20 20 20 19 19 18 17 17 17 16 15 14 13 12 12 12 9 8 9 13 13 14 15 16 17 17 15 13 12 11 13 15 16 17 17 19 22 24 24 19 14 18 20 19 19 19 20 21 17 15 14 11 12 10 11 22 28 28 28 30 32 32 32 32 32 32 32 32 32 33 35 37 39 41 42 44 45 46 46
17 18 18 18 18 18 18 17 17 17 16 16 16 16 16 15 14 12 11 10 10 11 11 8 7 7 7 9 13 17 18 18 16 14 12 11 10 10 14 16 17 17 18 20 23 23 17 12 17 20 18 18 18 19 20 18 16 14 11 11 10 9 19 26 28 28 29 31 32 32 32 33 33 32 32 32 33 35 37 39 40 42 43 44 45 45
16 16 16 16 16 16 16 15 15 15 15 15 14 14 14 13 12 10 10 10 10 11 11 11 10 8 8 12 16 17 17 15 11 9 11 11 10 11 14 15 16 16 17 17 17 15 10 10 17 18 17 17 17 18 18 17 15 13 10 11 11 8 16 25 28 28 28 30 32 33 33 34 33 33 33 33 34 36 38 39 40 41 42 43 42 42
17 17 16 16 15 15 15 15 14 14 14 13 13 13 12 12 11 11 12 12 12 11 11 12 11 11 11 12 11 11 11 9 8 9 13 12 10 11 13 14 14 15 15 13 8 4 4 10 16 17 16 16 16 16 15 14 13 11 9 11 12 8 13 25 29 29 28 30 32 33 34 34 34 34 34 34 35 36 38 39 40 40 40 39 38 37
17 17 16 16 16 15 15 14 14 14 14 13 13 12 11 11 11 12 12 12 12 12 12 12 12 12 11 7 4 4 4 8 12 15 16 12 10 11 14 13 14 15 15 10 5 3 2 4 12 16 15 15 15 14 13 12 10 8 9 11 12 9 10 22 29 30 29 30 31 33 35 35 34 34 34 35 36 37 38 39 39 39 37 35 34 34
16 16 15 15 15 15 14 14 14 14 14 13 13 12 11 11 11 12 12 13 13 13 13 13 13 13 12 9 7 6 6 13 19 21 18 14 12 13 14 13 14 15 16 12 7 4 3 2 5 13 16 16 15 13 11 9 8 7 8 10 11 9 7 20 28 31 31 31 32 33 34 34 34 34 35 35 36 38 39 39 39 38 36 34 32 32
16 15 15 15 14 14 14 14 14 14 14 13 13 13 12 12 12 12 13 13 14 14 14 14 14 13 13 13 13 14 16 21 23 22 18 15 13 13 14 14 15 16 17 14 10 7 5 6 1 8 15 17 16 14 11 8 6 6 7 9 10 7 6 17 27 31 33 33 33 34 34 34 34 34 35 35 36 38 39 39 39 38 36 34 33 32
15 15 14 14 14 14 14 14 14 14 14 13 13 12 13 13 13 13 14 14 14 15 16 15 15 14 14 14 14 16 20 23 23 21 18 15 13 13 15 15 15 15 15 13 10 8 8 11 8 4 12 16 16 15 12 9 6 4 6 9 8 5 6 16 26 31 34 35 35 35 35 34 33 33 34 34 35 37 38 39 39 38 37 35 34 33
15 14 14 14 14 14 14 14 14 14 13 13 13 13 13 14 14 15 15 15 15 16 17 17 17 16 16 15 14 16 19 22 23 22 19 17 16 15 16 15 16 15 13 12 9 7 6 12 11 5 9 12 14 14 13 11 7 3 6 7 5 3 8 17 25 31 33 34 35 35 35 34 34 33 33 34 35 36 37 38 39 39 38 37 36 35
14 13 13 13 14 14 14 14 14 14 13 13 14 14 14 15 15 16 17 17 17 17 18 18 19 19 20 19 19 20 22 25 25 24 22 21 19 17 15 16 18 18 15 13 10 8 6 10 11 6 6 7 8 11 14 13 9 5 4 4 2 6 11 18 25 30 32 33 33 33 34 34 34 34 34 34 35 37 37 38 38 38 38 38 38 37
13 13 13 13 13 13 14 14 14 14 14 15 15 16 16 16 17 17 18 18 18 18 18 19 20 20 21 22 24 25 26 27 27 26 25 25 23 21 18 19 21 20 16 13 12 10 9 8 8 5 4 5 5 7 12 15 13 8 5 3 7 10 13 18 24 29 31 32 32 32 33 33 33 33 33 34 35 37 37 37 37 37 37 37 38 38
13 13 13 14 14 14 14 14 15 15 15 16 17 17 17 18 18 18 18 18 18 18 19 19 20 20 21 22 23 25 26 27 27 26 26 26 25 23 22 22 24 23 20 17 14 12 10 6 5 3 1 7 10 12 14 15 13 9 7 9 12 14 15 18 22 26 29 31 32 32 33 33 33 33 33 35 36 37 37 37 37 37 36 37 37 37
13 13 14 14 14 15 15 15 15 16 17 18 18 18 18 18 18 18 18 18 17 17 17 18 18 19 20 21 21 22 23 24 25 25 25 25 24 24 24 24 24 24 23 20 17 14 11 7 4 3 2 4 10 15 17 15 12 9 9 12 15 17 17 18 20 24 27 30 32 33 33 34 34 34 35 35 36 37 37 37 37 37 37 36 35 34
14 14 15 15 15 16 16 16 16 17 18 18 18 18 17 17 17 17 17 17 16 16 16 16 17 18 18 18 19 19 20 20 20 21 22 22 21 21 21 23 24 24 23 20 18 15 12 10 9 10 9 2 7 12 13 12 11 10 10 10 12 15 18 19 20 22 25 28 31 33 34 35 36 36 36 36 35 35 35 36 37 38 38 37 35 32
15 15 16 16 17 17 17 17 17 18 18 18 17 17 17 17 17 17 17 17 17 16 16 16 17 17 17 17 16 16 15 15 16 16 16 16 16 16 17 19 20 21 21 20 18 17 15 13 12 13 12 2 9 15 14 11 11 11 11 10 11 15 19 21 21 22 23 26 29 32 34 35 36 37 36 35 34 34 35 37 37 38 39 38 37 34
16 16 17 17 18 18 18 18 18 18 17 17 16 16 16 16 16 16 17 17 17 17 17 17 17 17 16 16 15 14 12 11 11 12 13 13 13 13 13 14 15 17 18 18 17 17 16 15 14 14 11 3 10 15 13 12 12 13 13 13 14 17 20 21 21 22 23 23 26 30 32 33 34 34 34 33 32 33 35 36 37 38 38 37 37 36
17 17 17 18 18 18 18 18 18 17 17 16 16 16 16 16 16 16 15 15 16 17 17 17 16 16 15 15 15 15 14 12 12 12 13 14 14 13 13 12 12 12 13 13 13 14 14 14 14 14 12 6 12 16 13 11 11 12 12 13 14 13 10 14 18 21 22 23 24 27 29 31 32 32 33 32 31 32 34 35 37 37 37 36 35 34
18 18 18 18 18 18 18 18 17 17 17 16 16 16 16 17 16 15 14 14 15 16 16 16 16 15 14 13 14 16 16 15 14 14 14 15 14 13 12 12 12 12 11 10 10 11 12 12 11 9 6 10 16 18 15 12 11 12 14 16 17 15 11 12 17 21 23 23 24 25 28 32 34 34 33 32 32 33 34 35 35 36 36 36 36 35
18 18 18 18 18 18 18 18 18 17 17 16 16 16 17 17 17 15 14 14 14 15 15 16 15 13 11 12 13 15 16 17 17 17 16 15 14 13 11 12 14 15 15 14 13 12 11 11 7 3 14 19 21 19 16 14 14 15 17 19 21 20 18 18 20 23 23 23 24 26 29 33 36 36 33 32 32 32 33 34 35 35 35 36 36 36
19 18 18 18 18 18 18 18 18 18 17 16 16 17 17 17 17 16 15 15 14 14 15 15 13 11 10 11 12 14 15 17 18 19 19 19 17 15 12 11 12 14 16 19 20 20 18 14 10 12 19 21 20 18 16 16 16 17 18 19 20 21 21 21 22 22 23 22 22 23 27 32 35 34 32 30 30 30 32 33 34 35 35 36 37 37
19 19 19 18 18 18 18 19 18 18 17 17 17 17 18 18 17 17 16 16 15 14 14 14 13 11 11 12 12 13 14 15 16 18 20 21 20 19 16 12 10 11 14 19 23 26 26 23 20 19 19 18 16 14 16 18 18 18 17 18 19 20 21 21 21 21 21 21 20 21 25 30 32 32 30 29 29 28 29 31 32 34 36 37 37 38
19 19 19 18 18 18 19 19 19 18 17 17 17 18 18 18 17 17 16 17 16 15 15 15 14 13 13 14 14 14 14 14 15 16 18 21 22 22 20 16 11 8 9 15 21 26 29 30 29 26 23 18 14 13 14 17 18 18 17 18 20 20 20 21 22 22 21 20 18 19 22 26 28 29 29 28 27 26 27 28 30 33 35 37 38 38
19 19 19 19 18 18 18 19 19 18 18 18 18 18 19 18 18 18 17 17 17 16 15 15 15 14 14 14 15 16 16 16 15 16 17 19 21 22 21 19 15 9 7 8 13 20 27 32 34 33 29 24 19 16 16 17 19 19 19 20 20 20 20 21 22 23 22 20 19 19 20 22 26 29 30 28 25 23 25 25 26 28 33 36 38 39
20 19 19 19 18 18 18 18 19 18 18 18 18 18 18 19 19 19 18 17 17 16 16 15 15 14 14 15 16 16 16 16 16 16 17 19 20 21 21 21 18 12 7 4 7 12 17 23 29 33 32 28 24 20 17 17 19 20 20 20 20 20 20 20 22 24 24 23 22 21 21 21 24 28 30 28 25 23 23 23 23 24 29 34 37 38
20 20 20 19 19 18 19 18 18 18 18 18 18 18 18 19 19 19 19 18 18 17 16 16 15 14 14 14 15 16 16 16 16 16 18 20 21 21 21 21 18 14 9 4 4 5 7 9 15 22 28 28 26 22 19 17 17 19 18 18 18 19 20 20 22 25 26 25 23 22 21 21 22 25 27 27 25 22 21 21 21 22 25 30 34 36
Wind_Direction
311 311 312 314 315 315 313 313 313 312 311 311 311 312 314 315 314 313 312 310 309 308 307 307 306 306 306 306 304 301 296 293 292 291 290 287 283 281 282 283 284 284 284 284 283 283 282 283 284 279 266 256 252 251 250 249 250 254 260 260 256 243 226 214 212 214 217 219 222 223 224 225 226 225 222 220 219 220 221 219 215 212 213 214 213 209
313 313 313 314 315 314 312 312 312 311 309 309 309 311 313 315 315 314 312 311 309 308 308 307 306 306 306 306 306 303 299 294 290 289 288 287 285 285 284 284 284 284 284 283 282 281 280 280 281 277 266 256 253 254 253 251 251 253 258 263 263 251 229 212 208 211 216 219 221 223 223 223 224 224 221 218 217 218 220 219 216 213 212 213 212 209
314 314 313 314 315 313 311 311 310 310 308 307 307 309 312 314 314 313 312 311 310 309 308 307 306 305 305 305 305 304 302 297 292 289 288 287 286 286 286 285 284 284 283 283 280 279 278 277 277 275 267 256 253 255 256 254 251 252 257 264 267 258 236 213 207 209 215 219 221 222 222 222 223 223 221 218 217 218 220 219 216 213 212 212 212 210
313 313 313 314 313 312 310 309 309 309 308 306 306 308 312 313 313 312 311 310 309 309 308 306 305 305 305 305 306 306 304 300 296 292 290 288 286 285 284 283 283 282 282 281 280 278 277 275 274 271 264 255 253 255 257 256 252 251 254 261 268 264 243 218 208 209 215 218 220 221 221 221 222 223 221 219 217 218 219 218 214 211 211 212 212 211
311 311 312 312 312 310 309 309 309 309 308 306 306 309 312 313 312 311 310 309 309 309 308 308 307 306 305 305 306 306 303 300 297 294 292 289 287 285 283 282 282 281 281 280 279 277 275 272 269 264 256 252 252 255 257 256 252 250 251 258 266 265 247 224 214 211 214 216 218 219 219 220 221 222 221 219 217 217 218 216 212 210 211 213 213 212
310 309 309 309 308 307 308 308 309 309 308 306 307 310 312 312 312 311 310 310 310 310 310 309 308 307 306 305 304 304 302 300 298 296 293 291 289 286 284 283 281 281 281 280 277 274 271 268 263 256 249 248 251 253 255 255 252 249 249 255 263 264 249 228 218 213 213 215 216 217 217 218 220 221 221 219 217 216 216 214 211 210 212 214 214 212
307 308 308 307 305 305 305 306 307 307 307 307 308 311 312 313 312 311 311 312 312 312 311 310 309 309 307 306 305 305 304 303 302 300 298 295 293 290 286 283 281 280 281 280 276 272 268 265 258 250 245 245 249 252 254 254 251 249 248 253 260 264 254 233 220 213 212 213 214 215 215 216 218 220 221 219 217 215 215 213 211 210 212 215 215 213
306 307 307 306 306 305 305 305 306 307 306 307 309 311 313 314 314 313 313 314 314 314 313 312 311 311 310 309 309 308 308 307 305 304 302 300 298 295 290 285 281 279 279 278 275 270 266 261 255 248 244 244 246 250 253 253 251 248 248 251 258 263 259 241 223 212 211 212 213 213 212 213 216 219 220 219 217 215 215 213 210 210 212 215 216 214
304 306 306 306 305 305 305 306 307 307 307 307 307 310 312 314 316 317 317 317 316 316 315 314 313 312 311 312 312 311 310 307 304 301 301 300 300 299 295 289 283 280 278 276 272 268 263 258 253 247 242 241 243 247 251 252 251 249 247 249 255 262 263 249 226 211 211 212 213 211 210 210 213 217 219 218 217 215 214 212 210 209 210 213 215 214
303 304 304 304 303 302 303 304 306 307 307 306 305 307 310 314 318 320 320 318 318 318 317 316 314 313 312 313 313 313 312 309 305 302 300 300 300 299 295 291 287 284 281 277 273 267 261 256 251 244 238 235 239 245 249 251 251 249 246 248 254 262 265 249 224 209 209 212 213 211 209 207 210 214 218 219 218 216 215 213 211 209 209 211 213 213
304 303 303 302 301 301 301 302 304 306 306 306 306 308 311 316 320 321 319 318 317 318 318 316 314 312 311 311 313 314 313 311 309 308 307 305 304 300 296 293 292 291 288 282 276 268 261 255 249 240 232 229 233 240 246 249 250 248 246 247 252 262 267 249 220 206 207 212 213 212 209 206 207 211 216 218 219 218 216 214 212 210 209 210 212 212
303 303 301 300 300 301 303 304 305 306 308 309 311 313 316 319 320 319 316 314 315 316 316 316 313 310 308 308 310 313 313 310 310 313 314 313 311 307 304 299 297 295 293 287 277 267 260 253 246 237 228 225 228 235 243 247 248 247 245 246 252 262 268 250 220 206 206 211 213 213 210 206 205 209 213 216 217 217 216 214 212 210 209 209 210 212
300 300 299 298 298 300 304 306 308 309 310 312 314 316 317 318 319 317 313 311 311 313 314 314 312 310 308 308 310 312 312 313 316 319 319 318 316 315 313 308 303 299 296 290 281 270 260 251 242 234 227 225 227 233 240 245 246 245 244 245 251 262 269 249 220 206 205 209 213 213 211 207 206 208 211 214 215 214 213 211 210 208 206 206 208 211
299 299 297 296 297 300 303 306 307 307 308 310 311 313 313 314 315 316 314 312 311 311 312 311 310 310 310 311 313 315 317 322 325 325 322 319 317 316 316 312 306 301 297 292 284 274 263 252 242 233 227 226 228 233 238 242 244 243 242 244 251 262 269 248 219 206 205 208 212 213 212 209 207 208 210 211 211 211 209 207 205 203 203 204 206 209
298 298 295 294 295 298 301 303 304 303 304 306 308 310 310 311 314 316 315 313 312 312 312 312 312 312 311 312 316 322 326 330 331 328 323 318 315 315 315 313 307 301 296 292 285 277 268 257 245 235 228 227 229 232 235 238 240 240 240 242 251 262 266 244 218 206 205 207 210 211 211 209 208 208 208 208 208 207 206 203 201 199 200 203 205 206
295 293 289 290 293 296 299 301 301 301 302 304 306 307 308 310 313 315 314 312 311 312 314 317 317 315 314 315 319 326 332 335 332 326 321 316 313 312 314 312 307 301 296 292 285 278 271 261 248 236 230 229 230 232 233 234 235 236 238 241 251 262 264 240 215 205 204 206 208 210 210 210 209 208 207 206 205 204 202 200 198 197 199 201 203 204
289 285 284 287 292 295 298 300 299 299 300 301 302 303 306 309 312 313 310 308 308 310 314 318 319 316 314 315 318 326 333 334 330 323 317 312 309 310 312 310 303 298 296 291 284 276 270 259 247 237 231 231 231 232 231 231 232 233 235 241 252 263 261 236 213 204 204 205 206 208 209 209 209 208 206 204 202 201 200 198 196 196 198 199 199 200
282 280 283 289 294 297 298 299 298 298 298 298 299 302 306 309 310 308 305 303 304 308 312 314 313 309 308 309 311 317 325 328 325 319 314 308 306 307 310 307 300 294 293 290 284 276 269 254 240 233 231 231 232 231 229 229 230 232 235 242 254 264 259 232 211 203 203 203 205 206 207 208 208 208 206 204 201 199 198 197 196 196 196 197 197 197
281 283 290 296 298 298 297 296 296 295 294 295 299 304 307 307 306 303 299 297 299 304 309 309 306 303 300 299 303 308 315 319 319 314 308 304 302 304 306 305 299 294 292 288 283 278 270 252 236 228 228 228 229 228 227 227 229 232 236 245 258 265 253 225 208 203 202 202 203 204 206 207 207 207 206 204 202 199 197 197 197 197 197 197 196 196
292 296 300 301 300 297 294 292 290 290 290 295 299 302 303 302 300 297 295 294 298 302 304 303 300 298 298 298 300 303 308 312 312 308 302 298 296 298 301 300 297 293 291 288 284 280 275 249 229 221 222 224 224 223 224 225 228 232 239 252 263 262 242 216 205 202 201 201 202 204 205 206 206 206 205 205 203 200 198 197 197 198 198 197 196 197
298 297 295 294 292 290 289 288 286 286 287 292 295 296 295 294 293 291 291 293 298 301 301 299 296 295 296 296 297 299 303 306 305 301 298 295 293 293 295 297 296 294 290 288 287 286 278 246 220 213 216 219 220 220 220 222 226 232 245 261 265 253 224 207 202 201 200 200 201 203 204 205 205 204 204 204 204 202 200 198 198 198 198 198 197 197
288 287 286 284 282 282 283 283 282 282 282 284 285 284 284 283 283 285 288 292 297 299 298 295 293 292 292 291 292 294 298 298 296 293 292 290 287 288 294 300 301 296 289 287 289 290 281 243 213 206 210 213 215 215 217 219 224 235 254 272 265 236 208 201 200 201 200 199 200 201 203 203 203 203 203 203 203 203 201 200 199 198 198 198 198 198
284 284 285 282 279 277 276 275 275 276 276 273 272 271 270 269 271 277 284 292 297 297 295 293 291 289 288 286 288 292 295 296 292 287 283 278 279 288 299 307 306 298 290 288 291 294 285 238 206 199 207 210 211 212 214 215 221 237 261 279 265 222 200 198 199 200 199 199 199 200 201 201 201 201 201 202 202 202 202 202 200 199 198 198 199 199
292 289 286 283 279 275 272 271 271 270 271 269 267 266 266 267 271 279 288 294 295 294 292 291 290 289 288 289 290 291 293 295 294 290 284 282 290 298 304 308 306 299 291 291 295 296 284 234 200 195 204 208 208 208 209 210 218 238 266 288 269 218 198 197 198 199 199 199 198 198 198 199 199 199 199 199 200 201 201 202 201 201 199 199 199 200
293 288 284 282 280 278 275 275 276 277 279 279 279 279 280 282 285 289 292 291 289 288 287 288 290 291 293 296 295 293 293 295 297 298 297 295 296 298 302 306 303 297 294 296 299 297 284 233 196 189 198 203 205 205 204 206 215 237 269 292 274 221 200 197 197 198 198 198 198 197 197 197 197 197 197 197 198 198 199 200 201 201 201 200 200 200
292 290 288 288 288 288 287 287 288 289 291 292 292 293 293 294 293 291 287 284 283 285 288 290 291 293 296 297 295 294 295 299 300 299 296 294 294 298 301 305 303 299 299 300 301 298 284 230 189 180 190 196 200 200 200 202 211 232 264 294 280 225 202 198 196 196 196 197 197 196 196 196 196 195 194 194 195 196 197 198 199 201 202 202 202 202
297 296 295 295 295 295 294 294 294 294 294 293 293 293 294 295 293 288 284 284 287 292 294 294 294 295 297 296 294 295 299 302 301 297 294 295 296 297 301 305 307 306 304 302 303 299 281 226 183 171 178 188 194 196 197 200 210 226 257 298 290 230 202 198 196 194 194 195 196 196 195 195 194 193 192 191 192 193 195 196 197 199 200 201 202 202
304 303 302 300 299 298 297 297 297 297 296 294 293 294 295 296 294 289 287 292 298 297 292 289 290 294 296 295 296 298 300 300 296 295 303 306 299 293 297 305 311 312 310 308 306 300 277 215 170 161 170 179 187 192 196 201 210 224 254 298 299 242 203 197 195 194 193 193 194 195 195 194 193 191 190 189 190 191 192 193 194 195 197 198 198 199
311 309 307 306 304 303 303 304 303 302 299 297 295 295 297 299 298 295 293 298 299 295 287 285 286 289 292 295 298 299 298 292 287 299 322 318 303 292 298 307 313 317 320 318 314 301 261 176 153 152 161 168 177 185 192 201 210 224 252 294 305 266 206 196 194 193 192 192 193 194 195 193 191 189 188 188 189 190 190 190 190 190 191 191 191 191
317 316 314 312 311 310 309 308 306 303 301 299 298 297 299 301 301 299 296 296 292 286 282 283 283 286 291 297 300 299 294 283 283 306 323 321 305 295 304 310 316 323 330 331 328 300 230 147 141 145 152 157 165 175 186 198 209 224 253 288 303 283 211 196 193 193 192 191 192 194 193 191 189 187 186 186 188 188 188 187 186 185 184 184 184 185
317 316 314 313 313 313 311 308 305 304 304 303 302 301 301 300 298 296 294 290 284 279 278 280 281 284 287 293 299 296 290 281 288 300 313 313 302 298 306 311 316 323 331 334 329 303 296 133 131 134 143 148 154 163 176 190 202 222 251 281 298 290 218 194 191 191 192 191 192 193 192 190 187 185 185 186 188 188 188 187 185 183 180 179 179 180
316 314 312 312 313 313 311 308 307 307 307 307 306 305 301 298 294 290 287 283 279 276 276 277 278 280 280 277 275 276 278 282 288 297 307 306 300 300 307 310 314 319 326 324 310 287 298 314 123 129 135 138 141 147 158 173 189 215 246 275 295 295 222 191 189 190 191 192 192 192 190 187 185 184 184 186 188 189 188 187 185 182 179 177 175 176
315 314 313 314 314 314 313 312 311 311 309 307 305 303 300 297 293 288 284 280 277 274 273 274 275 276 276 275 273 272 275 279 285 293 301 303 301 301 307 310 311 315 321 320 307 284 274 289 253 136 131 129 132 137 143 151 171 207 245 272 290 291 215 187 186 188 189 191 191 191 189 186 183 183 184 187 189 189 189 188 187 184 180 176 174 173
315 315 315 316 317 317 316 316 315 313 311 308 304 301 299 297 295 292 288 284 280 275 271 269 269 271 274 276 275 275 276 278 284 292 298 300 300 300 303 305 307 311 317 320 314 298 282 285 276 169 126 121 123 130 135 139 151 200 249 269 280 270 195 182 183 184 185 186 186 187 186 183 182 182 184 187 189 190 190 189 188 186 182 178 174 172
318 318 319 320 320 320 319 318 316 314 312 309 306 303 301 299 298 296 293 289 284 279 274 270 266 265 266 269 272 275 276 282 289 295 296 296 296 297 300 301 305 311 315 315 314 308 298 297 285 236 130 117 116 119 121 130 136 175 246 259 259 207 175 177 178 179 178 178 179 180 180 179 179 180 183 186 189 190 190 190 189 187 184 181 177 174
320 321 323 324 324 322 321 320 318 316 313 311 309 308 306 304 302 300 297 293 289 284 279 275 271 267 263 262 263 267 273 283 292 297 295 292 290 291 293 295 300 305 309 308 307 307 307 309 297 265 148 121 111 111 111 122 134 165 219 233 182 146 159 170 173 173 171 170 170 171 172 173 174 177 181 185 188 190 190 189 188 187 185 183 181 178
324 325 327 328 327 326 324 322 320 318 316 314 314 314 313 311 308 305 302 299 295 290 286 282 278 274 269 266 265 267 274 283 291 296 297 293 288 284 281 285 289 292 293 293 298 305 309 312 304 282 165 125 109 107 110 113 119 134 160 114 99 114 139 157 165 167 166 164 164 165 166 168 169 172 177 182 185 187 187 187 187 186 185 184 183 182
329 330 331 332 331 329 327 324 322 320 318 317 317 317 317 315 313 310 307 304 301 296 292 288 284 281 279 276 274 276 280 284 289 294 299 296 290 282 276 279 284 286 285 281 284 294 307 310 306 293 179 115 105 103 107 107 105 105 103 86 86 97 116 138 153 159 160 160 160 161 162 163 165 167 170 173 175 176 178 180 181 183 183 183 183 183
332 333 334 334 334 332 328 325 322 321 321 320 320 319 318 317 315 313 311 309 306 303 299 295 292 290 290 288 286 285 285 287 291 295 299 299 295 286 278 276 279 284 285 282 278 278 284 287 292 294 283 110 102 100 101 106 107 100 88 77 75 81 96 117 136 148 153 154 155 155 156 159 161 162 163 164 165 165 166 169 172 175 176 177 177 178
336 336 336 336 335 332 329 326 324 324 324 323 323 322 321 320 320 320 319 318 316 314 312 309 305 303 301 299 297 295 294 295 297 299 299 301 300 294 284 278 279 282 285 282 277 271 267 266 270 276 281 307 103 105 101 107 107 97 85 73 64 66 79 99 118 133 143 149 151 151 152 154 156 158 158 159 159 159 160 161 164 168 170 170 168 165
338 337 337 336 335 334 331 329 329 328 327 326 325 325 325 325 323 323 326 326 326 326 326 324 321 317 315 312 310 308 306 305 307 308 309 309 309 304 295 288 286 287 287 281 277 272 266 262 263 267 270 284 102 105 104 105 104 97 88 80 70 68 76 89 104 118 130 139 146 149 150 151 153 155 156 157 157 157 158 158 158 161 165 167 165 161
339 338 337 336 335 334 334 334 334 334 333 331 329 328 329 329 328 327 327 328 329 332 334 332 328 323 320 320 323 325 325 324 326 330 334 334 333 329 322 313 307 301 294 284 276 271 268 264 261 260 259 197 111 105 105 104 99 92 87 83 79 76 76 80 92 106 115 124 135 142 146 147 149 151 153 155 155 156 156 156 157 158 159 161 163 162
339 337 337 337 337 337 338 339 339 338 337 335 334 333 334 335 335 333 331 330 331 333 335 334 331 326 322 324 329 336 341 344 344 346 350 354 356 356 354 350 341 330 315 297 283 279 282 275 267 262 257 187 121 109 110 106 94 83 78 77 78 76 68 70 83 97 105 111 121 130 137 141 143 145 148 149 151 153 155 156 156 157 158 158 159 159
339 338 339 340 342 343 344 344 342 341 339 337 337 337 340 342 343 342 339 336 336 337 336 336 334 332 330 330 332 337 343 350 354 357 0 4 7 10 15 16 13 9 1 341 321 310 308 301 290 270 222 142 119 110 106 99 87 76 72 75 78 80 80 84 89 94 98 102 109 118 127 133 136 138 139 141 144 147 150 153 154 156 157 158 157 157
342 342 343 345 346 347 347 346 345 343 342 341 341 342 344 347 349 348 346 343 342 341 340 339 338 336 335 337 338 339 342 350 356 2 7 11 15 20 25 26 27 29 32 28 17 3 349 336 336 92 126 120 113 107 104 98 90 81 76 78 79 81 84 92 97 98 97 99 103 111 120 128 131 131 129 129 132 137 143 147 149 152 154 156 157 157
347 346 347 348 349 349 349 348 347 346 346 347 347 348 349 350 352 352 352 350 347 345 345 345 343 340 337 339 342 343 345 349 353 358 3 8 13 20 24 27 31 35 40 40 38 34 28 24 42 89 113 111 105 101 102 101 96 89 83 82 80 79 80 86 93 98 100 100 101 107 116 124 127 125 120 119 121 126 133 140 144 148 151 154 156 157
349 348 348 348 349 351 351 351 351 350 350 350 351 352 353 353 354 355 355 356 354 352 352 351 349 345 343 344 347 348 348 348 349 352 356 360 4 8 13 17 28 39 44 45 45 44 44 48 61 82 98 100 97 94 95 97 95 91 87 84 81 78 76 78 85 95 101 100 98 102 112 119 120 117 114 113 113 116 123 131 139 145 149 152 155 156
350 350 349 349 350 352 353 354 353 353 351 351 352 354 355 356 356 356 356 358 358 359 358 356 354 351 350 351 352 353 352 351 349 349 351 355 358 2 6 9 17 34 49 52 52 51 51 55 62 71 80 85 88 89 88 90 92 91 89 87 83 80 77 78 86 94 99 98 95 99 108 115 117 116 113 110 107 107 112 121 131 140 146 151 153 155
353 352 352 351 352 353 354 355 355 355 354 353 353 354 355 357 359 359 358 359 1 3 2 359 357 354 353 353 353 354 354 352 351 351 351 352 354 356 0 5 11 21 42 60 59 56 55 56 60 64 69 73 76 80 83 87 90 93 92 89 86 83 80 82 88 96 101 99 94 93 99 110 118 120 118 111 104 101 103 111 121 133 142 149 152 154
355 355 355 354 355 355 356 356 356 356 355 355 355 355 355 358 0 1 2 2 4 5 4 2 360 357 355 353 352 353 353 353 352 351 352 354 355 355 356 1 5 10 19 51 65 59 56 55 57 59 63 66 67 69 74 81 89 93 90 88 87 86 85 84 89 96 102 101 97 91 90 97 110 117 116 111 105 100 100 103 112 126 137 146 151 154
356 357 357 357 357 357 358 358 358 358 357 357 356 357 357 359 0 2 3 4 4 5 5 5 4 1 358 354 352 352 353 355 354 352 352 356 358 359 358 360 0 0 1 16 49 56 55 53 52 52 52 55 59 63 68 76 85 89 87 87 88 89 89 87 89 94 97 99 97 93 87 86 94 105 111 110 106 101 98 99 106 117 131 141 147 150